Location: Allos
(44.2333°N, 6.6333°E)
Time: 21:59:31
(UTC+00:00)

Cosmos 1821 Rocket - Pass Details

Date: 19 April 2021
Orbit: 946 x 1003 km, 82.9° (Epoch: 16 May)

Event Time Altitude Azimuth Distance (km) Brightness Sun altitude
Rises 03:56:06 0° 331° (NNW) 3,706 7.0 -8.7°
Reaches altitude 10° 04:00:52 10° 299° (WNW) 2,764 6.0 -7.9°
Maximum altitude 04:02:31 11° 284° (WNW) 2,684 5.8 -7.7°
Drops below altitude 10° 04:04:11 10° 268° (W) 2,766 5.8 -7.4°
Enters shadow 04:05:33 - 257° (WSW) 2,947 5.9 -7.2°
